{"data":{"norad_id":44880,"intl_designator":"2019-093B","name":"ETRSS-1","alt_names":[],"object_type":"PAYLOAD","status":"ACTIVE","operator":null,"country":"ETH","launch_date":"2019-12-20","launch_site_code":"TAISC","launch_vehicle":null,"mission":null,"orbit_class":"UNKNOWN","rcs_meters":null,"size_class":null,"mass_kg":null,"dimensions":null,"purposes":[],"wikipedia_slug":null,"has_3d_model":false,"image_url":null,"decayed_at":null,"tle_current":{"epoch":"2026-09-20T04:51:56.812032Z","epoch_age_seconds":87397,"freshness":"FRESH","line1":"1 44880U 19093B   26263.20274088  .00001657  00000+0  15156-3 0  9995","line2":"2 44880  97.7787 346.9037 0012952  95.6953 264.5745 14.96302591366265","mean_motion":14.96302591,"eccentricity":0.0012952,"inclination_deg":97.7787,"raan_deg":346.9037,"arg_perigee_deg":95.6953,"mean_anomaly_deg":264.5745,"bstar":0.00015156,"rev_number":36626,"period_min":96.237218906213,"perigee_km":569.32254472554,"apogee_km":587.3425834844,"semimajor_km":6956.469564105,"source":"CELESTRAK","updated_at":"2026-09-20T09:00:14.570077Z"}}}